Printer-friendly version
Follow the MPC on Twitter Follow the MPC on Facebook Follow the MPC on Google+ The MPC blog See all the MPC RSS feeds

MPEC 2006-S107: 2006 SP198

The following Minor Planet Electronic Circular may be linked-to from your own Web pages, but must not otherwise be redistributed electronically.

A form allowing access to any MPEC is at the bottom of this page.


Read MPEC 2006-S106 Read MPEC 2006-T01


M.P.E.C. 2006-S107                               Issued 2006 Sept. 30, 20:58 UT

     The Minor Planet Electronic Circulars contain information on unusual
         minor planets and routine data on comets.  They are published
   on behalf of Commission 20 of the International Astronomical Union by the
          Minor Planet Center, Smithsonian Astrophysical Observatory,
                          Cambridge, MA 02138, U.S.A.

                  Supported in part by the Brinson Foundation
                  Supported in part by the TABASGO Foundation
             Prepared using the Tamkin Foundation Computer Network

                              MPC@CFA.HARVARD.EDU
          URL http://cfa-www.harvard.edu/iau/mpc.html  ISSN 1523-6714

                                  2006 SP198

Observations:
     K06SJ8P* C2006 09 26.30531 01 00 15.19 +08 36 36.4          21.7 V ES107691
     K06SJ8P  C2006 09 26.32270 01 00 15.65 +08 36 25.0          21.4 V ES107691
     K06SJ8P  C2006 09 26.34014 01 00 16.20 +08 36 12.8          22.0 V ES107691
     K06SJ8P HC2006 09 28.34314 01 01 25.72 +08 12 44.0                 ES107291
     K06SJ8P  C2006 09 28.34705 01 01 25.76 +08 12 39.1                 ES107291
     K06SJ8P  C2006 09 28.35094 01 01 25.93 +08 12 36.2                 ES107291
     K06SJ8P  C2006 09 30.31292 01 02 33.56 +07 47 35.6          21.6 V ES107691
     K06SJ8P  C2006 09 30.33027 01 02 34.03 +07 47 21.8          21.3 V ES107691
     K06SJ8P  C2006 09 30.34755 01 02 34.43 +07 47 08.1          21.6 V ES107691
     K06SJ8P  C2006 09 30.39393 01 02 35.78 +07 46 31.2          22.2 V ES107291
     K06SJ8P  C2006 09 30.39792 01 02 35.90 +07 46 27.3          21.8 V ES107291
     K06SJ8P  C2006 09 30.40166 01 02 35.97 +07 46 24.3          21.6 V ES107291

Observer details:
291 LPL/Spacewatch II.  Observers T. H. Bressi, M. T. Read, A. F. Tubbiolo.
    1.8-m f/2.7 reflector + CCD.
691 Steward Observatory, Kitt Peak.  Observers J. V. Scotti, T. H. Bressi.
    0.9-m f/3 reflector + CCD.

Orbital elements:
2006 SP198                                               Earth MOID = 0.2655 AU
Epoch 2006 Sept. 22.0 TT = JDT 2454000.5                MPC
M 344.85594              (2000.0)            P               Q
n   0.22032023     Peri.  226.39135     +0.51596707     -0.85623813
a   2.7149789      Node   192.61706     +0.81538870     +0.49993682
e   0.5434873      Incl.    6.62063     +0.26252475     +0.13007478
P   4.47           H   22.2           G   0.15           U   8
Residuals in seconds of arc
060926 691  0.2-  0.1-    060928 291  0.5-  0.6-    060930 691  1.1-  0.1+
060926 691  0.5-  0.2+    060928 291  0.5+  0.6-    060930 291  0.5+  0.3+
060926 691  0.5+  0.3-    060930 691  0.3-  0.1+    060930 291  0.6+  0.3-
060928 291  0.5+  1.4+    060930 691  0.2-  0.0     060930 291  0.2+  0.3-

Ephemeris:
2006 SP198               a,e,i = 2.71, 0.54, 7                   q = 1.2394
Date    TT    R. A. (2000) Decl.     Delta      r     Elong.  Phase     V
2006 09 22    00 57.68   +09 20.2    0.467    1.455   161.7    12.5    22.1
2006 10 02    01 03.52   +07 24.7    0.405    1.402   171.1     6.4    21.5
2006 10 12    01 09.45   +04 41.2    0.357    1.355   177.4     1.9    20.9
2006 10 22    01 16.65   +01 24.7    0.324    1.314   168.1     9.0    21.0
2006 11 01    01 26.58   -01 53.8    0.305    1.281   158.5    16.5    21.0
2006 11 11    01 40.39   -04 37.5    0.299    1.258   150.0    23.2    21.2

Timothy B. Spahr             (C) Copyright 2006 MPC           M.P.E.C. 2006-S107

Read MPEC 2006-S106 Read MPEC 2006-T01


MPEC number:

Enter an MPEC number in one of the following forms:

  • 1997-B01 (the full form)
  • J97B01 (the packed version of the full form)
  • B01 (the abbreviated form)

Valid HTML 4.01!